User: anonymous   Login
Location: Darlington Observatory
(36.4817°N, 105.8156°W)
Time: 21:40:45
(UTC-06:00)
Language:

NOSS 3-3 (A) - Orbit

View from above orbital plane
View from above orbital plane
View from above satellite
View from above satellite

Ground track
Ground track

The orbit data is extracted from the following two-line orbital elements,

1 28537U 05004A   16267.76465048 0.00000000  00000-0  00000-0 0    09
2 28537  63.4284 147.3794 0240000 357.7803   2.2197 13.40719585    02
Epoch (UTC): 23 September 2016 18:21:05
Eccentricity: 0.0240000
inclination: 63.4284°
perigee height: 927 km
apogee height: 1286 km
right ascension of ascending node: 147.3794°
argument of perigee: 357.7803°
revolutions per day: 13.40719585
mean anomaly at epoch: 2.2197°
orbit number at epoch: 0

The dashed part of the orbit path shows where the satellite is in the earth's shadow,  

DLR